Location: Newark
(31.5350°N, 35.0986°E)
Time: 12:04:43
(UTC+00:00)

A-11 Canister half - Pass Details

Date: 21 October 2019
Orbit: 1514 x 1685 km, 47.2° (Epoch: 20 November)

Event Time Altitude Azimuth Distance (km) Brightness Sun altitude
Exits shadow 23:15:42 22° 44° (NE) 3,004 10.7 -57.0°
Drops below altitude 10° 23:18:26 10° 49° (NE) 3,815 11.4 -56.5°
Sets 23:21:32 0° 52° (NE) 4,779 12.1 -55.9°
